Home   Weather   Tampa   Past weeks
Flag for USA

Past Weather in Tampa, Florida, USA — July 2019

Now
77 °F

Cloudy.


Feels Like: 78 °F
Forecast: 85 / 67 °F
Wind: 6 mph from Southwest

Location: Tampa, Peter O Knight Airport

Current Time: Feb 18, 2020 at 10:40:00 am

Latest Report: Feb 18, 2020 at 9:55 am


Visibility: 10 mi

Pressure: 30.20 "Hg

Humidity: 89%

Dew Point: 73 °F

Location of TampaLocation

July 2019 Weather in Tampa — Graph

°F

High & Low Weather Summary for July 2019

 TemperatureHumidityPressure
High95 °F (Jul 5, 3:15 pm)100% (Jul 1, 4:55 am)30.20 "Hg (Jul 1, 4:55 am)
Low73 °F (Jul 19, 9:35 pm)44% (Jul 14, 6:15 pm)29.90 "Hg (Jul 8, 6:55 pm)
Average84 °F79%30.04 "Hg
* Reported Jul 1 12:15 am — Jul 31 11:55 pm, Tampa. Weather by CustomWeather, © 2020

Note: Actual official high and low records may vary slightly from our data, if they occured in-between our weather recording intervals... More about our weather records

Tampa Weather History for July 1, 2019

Scroll right to see more
 ConditionsComfort  
Time TempWeatherWind HumidityBarometerVisibility
12:15 am
Mon, Jul 1
82 °FMostly cloudy.3 mph84%30.08 "Hg10 mi
12:35 am82 °FOvercast.No wind84%30.07 "Hg10 mi
12:55 am82 °FOvercast.No wind84%30.07 "Hg10 mi
1:15 am82 °FOvercast.No wind84%30.06 "Hg10 mi
1:35 am82 °FOvercast.No wind84%30.06 "Hg10 mi
1:55 am82 °FOvercast.3 mph84%30.06 "Hg10 mi
2:35 am82 °FOvercast.No wind84%30.06 "Hg10 mi
2:55 am82 °FMostly cloudy.No wind84%30.06 "Hg10 mi
3:15 am82 °FMostly cloudy.No wind84%30.05 "Hg10 mi
3:35 am82 °FOvercast.No wind84%30.04 "Hg10 mi
3:55 am81 °FMostly cloudy.No wind89%30.04 "Hg10 mi
4:15 am81 °FOvercast.No wind89%30.04 "Hg10 mi
4:35 am81 °FMostly cloudy.No wind94%30.04 "Hg10 mi
4:55 am81 °FMostly cloudy.No wind100%30.04 "Hg10 mi
5:15 am81 °FMostly cloudy.No wind100%30.04 "Hg10 mi
5:35 am81 °FOvercast.No wind100%30.04 "Hg10 mi
5:55 am81 °FOvercast.No wind100%30.04 "Hg10 mi
6:15 am79 °FMostly cloudy.No wind100%30.04 "Hg10 mi
6:35 am81 °FMostly cloudy.No wind100%30.04 "Hg10 mi
7:35 am82 °FOvercast.No wind89%30.06 "Hg10 mi
7:55 am82 °FOvercast.No wind89%30.06 "Hg10 mi
8:15 am84 °FOvercast.No wind84%30.07 "Hg10 mi
8:35 am86 °FMostly cloudy.3 mph75%30.07 "Hg10 mi
8:55 am86 °FPartly sunny.No wind75%30.08 "Hg10 mi
9:15 am86 °FScattered clouds.5 mph75%30.07 "Hg10 mi
9:35 am88 °FScattered clouds.6 mph70%30.07 "Hg10 mi
10:15 am90 °FPartly sunny.3 mph67%30.07 "Hg10 mi
10:35 am88 °FMostly cloudy.3 mph70%30.07 "Hg10 mi
10:55 am88 °FOvercast.3 mph66%30.07 "Hg10 mi
11:15 am88 °FMostly cloudy.No wind66%30.07 "Hg10 mi
11:35 am90 °FMostly cloudy.5 mph63%30.07 "Hg10 mi
11:55 am90 °FOvercast.6 mph67%30.07 "Hg10 mi
12:15 pm90 °FMostly cloudy.5 mph67%30.07 "Hg10 mi
12:35 pm90 °FCloudy.7 mph67%30.07 "Hg10 mi
12:55 pm91 °FBroken clouds.6 mph59%30.06 "Hg10 mi
1:15 pm91 °FBroken clouds.7 mph59%30.07 "Hg10 mi
1:35 pm91 °FPartly sunny.9 mph56%30.07 "Hg10 mi
1:55 pm91 °FPartly sunny.8 mph56%30.06 "Hg10 mi
2:35 pm91 °FPartly sunny.7 mph56%30.05 "Hg10 mi
3:15 pm91 °FPartly sunny.9 mph59%30.04 "Hg10 mi
3:35 pm91 °FPartly sunny.8 mph59%30.04 "Hg10 mi
4:15 pm91 °FPartly sunny.10 mph59%30.03 "Hg10 mi
4:35 pm91 °FOvercast.12 mph59%30.03 "Hg10 mi
4:55 pm91 °FPartly sunny.10 mph63%30.02 "Hg10 mi
5:15 pm91 °FOvercast.10 mph63%30.01 "Hg10 mi
5:35 pm90 °FPartly sunny.7 mph63%30.01 "Hg10 mi
5:55 pm90 °FPartly sunny.9 mph67%30.01 "Hg10 mi
6:15 pm90 °FPartly sunny.7 mph67%30.01 "Hg10 mi
6:35 pm90 °FPartly sunny.5 mph67%30.01 "Hg10 mi
6:55 pm90 °FPartly sunny.9 mph67%30.01 "Hg10 mi
7:15 pm90 °FPartly sunny.7 mph67%30.02 "Hg10 mi
7:35 pm88 °FOvercast.7 mph70%30.02 "Hg10 mi
7:55 pm88 °FPartly sunny.6 mph70%30.03 "Hg10 mi
8:15 pm86 °FScattered clouds.7 mph75%30.03 "Hg10 mi
8:35 pm86 °FPassing clouds.7 mph79%30.03 "Hg10 mi
8:55 pm86 °FPassing clouds.7 mph75%30.03 "Hg10 mi
9:35 pm86 °FPassing clouds.6 mph75%30.03 "Hg10 mi
9:55 pm86 °FPassing clouds.6 mph75%30.04 "Hg10 mi
10:15 pm86 °FPassing clouds.5 mph75%30.04 "Hg10 mi
10:35 pm86 °FPassing clouds.6 mph75%30.04 "Hg10 mi
11:15 pm84 °FOvercast.5 mph79%30.04 "Hg10 mi
11:35 pm84 °FMostly cloudy.3 mph79%30.04 "Hg10 mi
11:55 pm84 °FOvercast.6 mph84%30.04 "Hg10 mi
Weather by CustomWeather, © 2020

See weather overview

Advertising